AirNav   TITAN Aviation Fuels
 
 923 users online  

8XS3 J A Knolle Airport
Sandia, Texas, USA

GOING TO SANDIA?


FAA INFORMATION EFFECTIVE 08 SEPTEMBER 2022

Location

FAA Identifier: 8XS3
Lat/Long: 27-59-38.0100N 097-49-14.0400W
27-59.633500N 097-49.234000W
27.9938917,-97.8205667
(estimated)
Elevation: 41 ft. / 12 m (estimated)
From city: 4 miles SE of SANDIA, TX
Time zone: UTC -5 (UTC -6 during Standard Time)
Zip code: 78368

Airport Operations

Airport use: Private use. Permission required prior to landing
Activation date: 08/2018
Control tower: no
ARTCC: HOUSTON CENTER
FSS: SAN ANGELO FLIGHT SERVICE STATION
Attendance: 
Wind indicator: yes
Segmented circle: no

Airport Communications

WX AWOS-3 at RBO (15 nm SE): 118.175 (361-767-1982)
WX AWOS-3 at T69 (15 nm E): 118.25 (361-364-1844)
WX ASOS at ALI (19 nm SW): 119.225 (361-668-0069)

Nearby radio navigation aids

VOR radial/distance  VOR name  Freq  Var
ALIr029/(18.6)ALICE VOR114.5006E
CRPr276/20.6CORPUS CHRISTI VORTAC115.5009E
THXr142/35.3THREE RIVERS VORTAC111.4008E

 
NDB name  Hdg/Dist  Freq  Var  ID
MELLON RANCH236/36.837506EMNO -- -. ---

Airport Services

Runway Information

Runway 13/31

Dimensions: 3000 x 50 ft. / 914 x 15 m
Surface: turf, in good condition
RUNWAY 13  RUNWAY 31
Traffic pattern: rightleft

Airport Ownership and Management from official FAA records

Ownership: Privately-owned
Owner: PEARSON KNOLLE
PO BOX 119
SANDIA, TX 78383
Phone 361-813-6551
Manager: PEARSON KNOLLE
PO BOX 119
SANDIA, TX 78383
Phone 361-813-6551

Additional Remarks

OWNER DESIRES CHARTING

Instrument Procedures

There are no published instrument procedures at 8XS3.

Some nearby airports with instrument procedures:

KNOG - Orange Grove Naval Auxiliary Field (13 nm SW)
KRBO - Nueces County Airport (15 nm SE)
T69 - Alfred C 'Bubba' Thomas Airport (15 nm E)
KALI - Alice International Airport (19 nm SW)
KCRP - Corpus Christi International Airport (21 nm SE)
 
Loc | Ops | Rwys | IFR | FBO | Links
Com | Nav | Svcs | Stats | Notes
Aerial photo
No photo
 
Airport distance calculator
Flying to J A Knolle Airport? Find the distance to fly.

From to 8XS3

Sunrise and sunset
Times for 02-Oct-2022
 Local
(UTC-5)
 Zulu
(UTC)
Morning civil twilight07:0212:02
Sunrise07:2612:26
Sunset19:1600:16
Evening civil twilight19:3900:39

Current date and time
Zulu (UTC)  03-Oct-2022 01:28:13
Local (UTC-5)  02-Oct-2022 20:28:13
 
METAR
KNOG 
13nm SW 
030056Z AUTO 06005KT 10SM CLR 23/14 A3010 RMK AO2 SLP172 T02330144 PNO $
KRBO 
15nm SE 
030115Z AUTO 10SM CLR 25/16 A3009 RMK AO2 T02460160
KT69 
15nm E 
030115Z AUTO 10SM CLR 23/16 A3009 RMK A01
KALI 
19nm SW 
030053Z AUTO 06006KT 10SM CLR 24/15 A3008 RMK AO2 SLP184 T02440150
KCRP 
22nm SE 
030051Z 09006KT 10SM FEW050 SCT200 BKN220 BKN250 27/17 A3008 RMK AO2 SLP184 T02670167
KBEA 
22nm N 
030115Z AUTO 12003KT 10SM CLR 21/13 A3008 RMK AO2 T02100129
TAF
KALI 
19nm SW 
021720Z 0218/0318 08008KT P6SM BKN050 FM030300 VRB03KT P6SM FEW080 SCT250 FM031500 08006KT P6SM SCT250
KCRP 
22nm SE 
021720Z 0218/0318 07012G18KT P6SM FEW060 SCT250 FM022100 12005KT P6SM FEW100 SCT250 FM030900 VRB03KT P6SM BKN250 FM031500 09007KT P6SM SCT250
NOTAMs
Click for the latest NOTAMs
NOTAMs are issued by the DoD/FAA and will open in a separate window not controlled by AirNav.

 

 
 

Would you like to see your business listed on this page?

 If your business provides an interesting product or service to pilots, flight crews, aircraft, or users of the J A Knolle Airport, you should consider listing it here.  To start the listing process, click on the button below
 
Add a business
 

Other Pages about J A Knolle Airport

Update a link
 
Copyright © AirNav, LLC. All rights reserved. Privacy Policy  Contact